West Palm Beach, FL

3:08 PM EDT on August 19, 2019 (GMT -0400)
Palm Beach International

Weather History for KPBI - June, 2019

Change the Weather History Date:

Sunday, June 9, 2019

  Actual Average Record
Temperature  
Mean Temperature 83 °F 81 °F  
Max Temperature 90 °F 88 °F 98 °F (1980)
Min Temperature 75 °F 74 °F 66 °F (1956)
Degree Days  
Heating Degree Days 0 0  
Month to date heating degree days 0 0  
Since 1 June heating degree days 0 0  
Since 1 July heating degree days 144 233  
Cooling Degree Days 18 16  
Month to date cooling degree days 176 143  
Year to date cooling degree days 1577 1252  
Since 1 June cooling degree days 176 143  
Growing Degree Days 32 (Base 50)    
Moisture  
Dew Point 73 °F    
Average Humidity 79    
Maximum Humidity 94    
Minimum Humidity 64    
Precipitation  
Precipitation 0.30 in 0.28 in 3.42 in (1997)
Month to date precipitation 2.35 2.42  
Year to date precipitation 23.36 21.13  
Snow  
Snow 0.00 in - - ()
Month to date snowfall 0.0  
Since 1 June snowfall 0.0  
Since 1 July snowfall 0.0  
Snow Depth 0.00 in    
Sea Level Pressure  
Sea Level Pressure 29.99 in    
Wind  
Wind Speed 6 mph (SSW)    
Max Wind Speed 24 mph    
Max Gust Speed 33 mph    
Visibility 9 miles    
Events Rain , Thunderstorm    
T = Trace of Precipitation, MM = Missing Value Source: NWS Daily Summary

Daily Weather History Graph

Daily Weather History Graph

Search for Another Location

Airport or City:

Astronomy

Jun. 09, 2019 Rise Set
Actual Time 6:26 AM EDT 8:13 PM EDT
Civil Twilight 6:00 AM EDT 8:39 PM EDT
Nautical Twilight 5:28 AM EDT 9:10 PM EDT
Astronomical Twilight 4:55 AM EDT 9:43 PM EDT
Moon 12:44 PM EDT (6/9) 1:08 AM EDT (6/9)
Length of Visible Light 14h 39m
Length of Day
13h 46m
Waxing Crescent, 43% of the Moon is Illuminated
Jun 9
Waxing Crescent
Jun 10
First Quarter
Jun 17
Full
Jun 25
Last Quarter
Jul 2
New

Hourly Weather History & Observations

Time (EDT) Temp. Heat Index Dew Point Humidity Pressure Visibility Wind Dir Wind Speed Gust Speed Precip Events Conditions
12:53 AM 79.0 °F - 72.0 °F 79% 29.97 in 10.0 mi Calm Calm - N/A   Scattered Clouds
1:53 AM 77.0 °F - 72.0 °F 84% 29.97 in 10.0 mi West 3.5 mph - N/A   Partly Cloudy
2:53 AM 79.0 °F - 72.0 °F 79% 29.96 in 10.0 mi Calm Calm - N/A   Scattered Clouds
3:53 AM 78.1 °F - 72.0 °F 81% 29.94 in 10.0 mi SSE 3.5 mph - N/A   Scattered Clouds
4:53 AM 78.1 °F - 73.9 °F 87% 29.94 in 10.0 mi South 5.8 mph - N/A   Scattered Clouds
5:53 AM 79.0 °F - 75.0 °F 88% 29.94 in 10.0 mi South 4.6 mph - N/A   Mostly Cloudy
6:53 AM 79.0 °F - 75.9 °F 90% 29.96 in 10.0 mi SW 3.5 mph - N/A   Mostly Cloudy
7:53 AM 82.0 °F 90.2 °F 77.0 °F 85% 29.98 in 10.0 mi South 5.8 mph - N/A   Mostly Cloudy
8:53 AM 84.9 °F 95.3 °F 77.0 °F 77% 29.99 in 10.0 mi SSE 6.9 mph - N/A   Mostly Cloudy
9:53 AM 87.1 °F 97.3 °F 75.9 °F 69% 30.00 in 10.0 mi South 11.5 mph - N/A   Mostly Cloudy
10:53 AM 87.1 °F 97.3 °F 75.9 °F 69% 30.00 in 10.0 mi SSW 8.1 mph - N/A   Mostly Cloudy
11:20 AM 88.0 °F 98.5 °F 75.9 °F 67% 30.01 in 10.0 mi SSE 9.2 mph - N/A   Mostly Cloudy
11:53 AM 89.1 °F 100.2 °F 75.9 °F 65% 29.99 in 10.0 mi SE 8.1 mph - N/A   Mostly Cloudy
12:36 PM 90.0 °F 104.5 °F 78.1 °F 68% 29.98 in 10.0 mi SE 9.2 mph - N/A Thunderstorm Thunderstorm
12:53 PM 88.0 °F 100.2 °F 77.0 °F 70% 29.97 in 10.0 mi SE 19.6 mph - N/A Thunderstorm Thunderstorm
1:00 PM 82.9 °F 89.4 °F 73.9 °F 74% 29.99 in 10.0 mi SSW 20.7 mph 33.4 mph N/A Thunderstorm Thunderstorm
1:10 PM 78.1 °F - 72.0 °F 81% 30.00 in 2.5 mi SSW 19.6 mph 27.6 mph 0.02 in Rain , Thunderstorm Heavy Thunderstorms and Rain
1:26 PM 75.0 °F - 70.0 °F 84% 30.01 in 3.0 mi WSW 11.5 mph - 0.15 in Rain , Thunderstorm Light Thunderstorms and Rain
1:40 PM 75.0 °F - 70.0 °F 84% 29.99 in 8.0 mi WNW 4.6 mph - 0.19 in Rain , Thunderstorm Light Thunderstorms and Rain
1:53 PM 75.0 °F - 70.0 °F 84% 29.98 in 10.0 mi West 6.9 mph - 0.19 in Thunderstorm Thunderstorm
2:03 PM 75.0 °F - 71.1 °F 87% 29.98 in 10.0 mi WNW 3.5 mph - N/A   Mostly Cloudy
2:53 PM 81.0 °F 85.8 °F 73.0 °F 77% 30.00 in 10.0 mi South 4.6 mph - 0.01 in   Mostly Cloudy
3:47 PM 84.2 °F 92.3 °F 75.2 °F 74% 30.01 in 10.0 mi SW 15.0 mph 19.6 mph N/A Thunderstorm Thunderstorm
3:53 PM 82.0 °F 87.4 °F 73.0 °F 74% 30.01 in 10.0 mi SW 13.8 mph 19.6 mph N/A Thunderstorm Thunderstorm
4:07 PM 78.1 °F - 71.1 °F 79% 30.02 in 10.0 mi WSW 11.5 mph - 0.00 in Rain , Thunderstorm Light Thunderstorms and Rain
4:53 PM 75.9 °F - 71.1 °F 85% 30.03 in 7.0 mi West 6.9 mph - 0.01 in Rain , Thunderstorm Thunderstorms and Rain
5:37 PM 75.0 °F - 71.1 °F 87% 30.01 in 9.0 mi West 5.8 mph - 0.06 in Rain Light Rain
5:53 PM 75.0 °F - 71.1 °F 87% 30.01 in 9.0 mi Calm Calm - 0.07 in Rain Light Rain
6:53 PM 75.0 °F - 71.1 °F 87% 30.01 in 9.0 mi WNW 4.6 mph - 0.01 in Rain Light Rain
7:53 PM 75.9 °F - 72.0 °F 87% 30.01 in 10.0 mi Calm Calm - 0.00 in   Overcast
8:53 PM 75.9 °F - 72.0 °F 87% 30.02 in 10.0 mi WNW 3.5 mph - 0.01 in   Overcast
9:53 PM 75.9 °F - 73.0 °F 91% 30.01 in 10.0 mi ESE 4.6 mph - N/A   Mostly Cloudy
10:53 PM 77.0 °F - 73.0 °F 88% 30.04 in 10.0 mi ESE 5.8 mph - N/A   Scattered Clouds
11:53 PM 77.0 °F - 73.9 °F 90% 30.04 in 10.0 mi Calm Calm - N/A   Mostly Cloudy